TimePST,TemperatureF,Dew PointF,Humidity,Sea Level PressureIn,VisibilityMPH,Wind Direction,Wind SpeedMPH,Gust SpeedMPH,PrecipitationIn,Events,Conditions,WindDirDegrees,DateUTC
12:53 AM,27.0,26.1,96,29.87,0.5,SW,16.1,28.8,0.05,Fog-Snow,Snow,220,2012-12-03 08:53:00
1:38 AM,26.6,24.8,93,29.79,0.2,SSW,10.4,28.8,0.04,Fog-Snow,Snow,210,2012-12-03 09:38:00
1:51 AM,26.6,24.8,93,29.80,0.5,SSW,10.4,23.0,0.06,Fog-Snow,Snow,210,2012-12-03 09:51:00
1:53 AM,27.0,25.0,92,29.88,0.5,SSW,12.7,26.5,0.06,Fog-Snow,Light Snow,210,2012-12-03 09:53:00
2:10 AM,26.6,24.8,93,29.80,1.0,SW,13.8,28.8,0.01,Snow,Light Snow,220,2012-12-03 10:10:00
2:19 AM,26.6,24.8,93,29.80,0.5,SSW,13.8,25.3,0.02,Fog-Snow,Snow,200,2012-12-03 10:19:00
2:53 AM,27.0,25.0,92,29.90,0.5,SSW,13.8,31.1,0.05,Fog-Snow,Snow,200,2012-12-03 10:53:00
3:01 AM,26.6,24.8,93,29.80,0.2,SW,17.3,31.1,0.01,Fog-Snow,Snow,220,2012-12-03 11:01:00
3:08 AM,26.6,24.8,93,29.80,1.0,SW,17.3,32.2,0.01,Snow,Light Snow,220,2012-12-03 11:08:00
3:16 AM,26.6,24.8,93,29.80,1.5,SSW,8.1,32.2,0.01,Snow,Light Snow,200,2012-12-03 11:16:00
3:22 AM,26.6,26.6,100,29.80,0.8,SW,8.1,20.7,0.02,Snow,Light Snow,220,2012-12-03 11:22:00
3:53 AM,27.0,26.1,96,29.91,0.2,SSW,8.1,24.2,0.04,Fog-Snow,Heavy Snow,200,2012-12-03 11:53:00
4:11 AM,26.6,26.6,100,29.81,0.8,SSW,12.7,25.3,0.02,Snow,Light Snow,210,2012-12-03 12:11:00
4:37 AM,26.6,26.6,100,29.82,0.2,SSW,9.2,20.7,0.05,Fog-Snow,Heavy Snow,200,2012-12-03 12:37:00
4:53 AM,27.0,26.1,96,29.92,0.2,SSW,10.4,20.7,0.07,Fog-Snow,Heavy Snow,200,2012-12-03 12:53:00
5:46 AM,26.6,24.8,93,29.84,0.5,SSW,11.5,27.6,0.07,Fog-Snow,Snow,210,2012-12-03 13:46:00
5:53 AM,27.0,25.0,92,29.94,0.5,SSW,10.4,23.0,0.08,Fog-Snow,Snow,200,2012-12-03 13:53:00
6:26 AM,26.6,26.6,100,29.85,0.2,SW,9.2,-,0.04,Fog-Snow,Heavy Snow,220,2012-12-03 14:26:00
6:53 AM,27.0,26.1,96,29.96,0.5,SSW,11.5,21.9,0.07,Fog-Snow,Snow,210,2012-12-03 14:53:00
7:36 AM,26.6,26.6,100,29.87,0.2,SW,9.2,21.9,0.04,Fog-Snow,Snow,220,2012-12-03 15:36:00
7:53 AM,27.0,26.1,96,29.96,0.2,SSW,10.4,33.4,0.05,Fog-Snow,Light Snow,210,2012-12-03 15:53:00
8:12 AM,26.6,26.6,100,29.87,0.5,SW,12.7,31.1,0.00,Fog-Snow,Light Snow,220,2012-12-03 16:12:00
8:41 AM,28.4,26.6,93,29.88,0.5,SW,12.7,35.7,0.01,Fog-Snow,Light Snow,230,2012-12-03 16:41:00
8:53 AM,27.0,26.1,96,29.99,1.0,WSW,12.7,26.5,0.02,Snow,Light Snow,240,2012-12-03 16:53:00
8:58 AM,26.6,24.8,93,29.89,2.0,WSW,16.1,33.4,0.00,Snow,Light Snow,250,2012-12-03 16:58:00
9:04 AM,26.6,26.6,100,29.89,3.0,SW,12.7,33.4,0.00,,Overcast,230,2012-12-03 17:04:00
9:21 AM,26.6,26.6,100,29.89,9.0,SW,12.7,28.8,0.00,Rain,Light Freezing Rain,230,2012-12-03 17:21:00
9:38 AM,26.6,26.6,100,29.91,8.0,SW,12.7,29.9,0.00,,Overcast,230,2012-12-03 17:38:00
9:40 AM,28.4,26.6,93,29.91,8.0,SW,11.5,29.9,0.00,Rain,Light Freezing Rain,230,2012-12-03 17:40:00
9:48 AM,28.4,26.6,93,29.91,6.0,SW,12.7,21.9,0.00,Rain,Light Freezing Rain,230,2012-12-03 17:48:00
9:53 AM,28.0,26.1,92,30.01,1.5,SW,12.7,25.3,0.00,Rain,Light Freezing Rain,230,2012-12-03 17:53:00
10:01 AM,28.4,26.6,93,29.91,2.0,WSW,11.5,28.8,0.00,Snow,Light Snow,240,2012-12-03 18:01:00
10:08 AM,28.4,26.6,93,29.93,7.0,SW,12.7,28.8,0.00,Snow,Light Snow,230,2012-12-03 18:08:00
10:25 AM,28.4,26.6,93,29.93,8.0,WSW,11.5,25.3,0.00,Snow,Light Snow,250,2012-12-03 18:25:00
10:31 AM,28.4,26.6,93,29.93,9.0,WSW,9.2,20.7,0.00,Rain,Light Freezing Rain,240,2012-12-03 18:31:00
10:43 AM,28.4,26.6,93,29.93,9.0,WSW,11.5,23.0,0.00,Rain,Light Freezing Rain,250,2012-12-03 18:43:00
10:50 AM,26.6,26.6,100,29.93,6.0,WSW,12.7,25.3,0.00,Snow,Light Snow,240,2012-12-03 18:50:00
10:53 AM,27.0,26.1,96,30.03,5.0,SW,8.1,25.3,0.00,Snow,Light Snow,220,2012-12-03 18:53:00
11:04 AM,28.4,26.6,93,29.93,1.8,WSW,9.2,26.5,0.00,Snow,Light Snow,240,2012-12-03 19:04:00
11:13 AM,28.4,26.6,93,29.93,1.2,WSW,12.7,21.9,0.00,Snow,Light Snow,240,2012-12-03 19:13:00
11:31 AM,28.4,26.6,93,29.93,0.5,West,8.1,20.7,0.01,Fog-Snow,Light Snow,260,2012-12-03 19:31:00
11:53 AM,28.0,27.0,96,30.04,1.0,Variable,6.9,27.6,0.02,Snow,Light Snow,0,2012-12-03 19:53:00
12:01 PM,28.4,26.6,93,29.93,0.8,SW,9.2,24.2,0.00,Snow,Light Snow,230,2012-12-03 20:01:00
12:27 PM,28.4,26.6,93,29.94,1.5,Variable,5.8,26.5,0.00,Snow,Light Snow,0,2012-12-03 20:27:00
12:33 PM,28.4,26.6,93,29.94,3.0,WSW,8.1,21.9,0.00,Snow,Light Snow,240,2012-12-03 20:33:00
12:53 PM,28.0,27.0,96,30.04,9.0,Variable,6.9,20.7,0.00,,Overcast,0,2012-12-03 20:53:00
1:00 PM,28.4,26.6,93,29.95,9.0,WSW,8.1,17.3,0.00,Rain,Light Freezing Rain,240,2012-12-03 21:00:00
1:15 PM,28.4,26.6,93,29.95,2.5,Variable,6.9,24.2,0.01,Snow,Light Snow,0,2012-12-03 21:15:00
1:18 PM,28.4,26.6,93,29.95,1.8,WSW,10.4,24.2,0.01,Snow,Light Snow,240,2012-12-03 21:18:00
1:25 PM,28.4,26.6,93,29.95,0.8,WSW,8.1,21.9,0.02,Snow,Light Snow,250,2012-12-03 21:25:00
1:41 PM,28.4,26.6,93,29.96,1.2,Variable,5.8,-,0.03,Snow,Light Snow,0,2012-12-03 21:41:00
1:53 PM,28.0,27.0,96,30.05,1.8,WSW,10.4,17.3,0.03,Snow,Light Snow,240,2012-12-03 21:53:00
2:06 PM,28.4,26.6,93,29.96,1.2,SW,9.2,20.7,0.00,Snow,Light Snow,230,2012-12-03 22:06:00
2:20 PM,28.4,26.6,93,29.96,0.8,SW,9.2,19.6,0.00,Snow,Light Snow,230,2012-12-03 22:20:00
2:46 PM,28.4,26.6,93,29.97,0.2,SW,8.1,16.1,0.01,Fog-Snow,Light Snow,230,2012-12-03 22:46:00
2:53 PM,28.0,27.0,96,30.07,0.2,Variable,5.8,-,0.01,Fog-Snow,Snow,0,2012-12-03 22:53:00
3:41 PM,28.4,28.4,100,29.98,0.5,Variable,5.8,21.9,0.02,Fog-Snow,Light Snow,0,2012-12-03 23:41:00
3:53 PM,28.0,28.0,100,30.08,0.5,Variable,6.9,-,0.02,Fog-Snow,Light Snow,0,2012-12-03 23:53:00
4:53 PM,28.0,28.0,100,30.10,0.5,Variable,5.8,-,0.02,Fog-Snow,Light Snow,0,2012-12-04 00:53:00
5:11 PM,28.4,28.4,100,30.01,1.5,Variable,4.6,18.4,0.00,Snow,Light Snow,0,2012-12-04 01:11:00
5:21 PM,28.4,28.4,100,30.02,2.5,Calm,Calm,-,0.00,Snow,Light Snow,0,2012-12-04 01:21:00
5:26 PM,28.4,28.4,100,30.02,1.2,Variable,3.5,-,0.00,Snow,Light Snow,0,2012-12-04 01:26:00
5:35 PM,28.4,28.4,100,30.02,0.5,Variable,5.8,-,0.00,Fog-Snow,Snow,0,2012-12-04 01:35:00
5:53 PM,28.0,28.0,100,30.12,0.8,WSW,8.1,-,0.01,Snow,Light Snow,240,2012-12-04 01:53:00
6:53 PM,28.9,28.0,96,30.12,0.5,Variable,5.8,-,0.01,Fog-Snow,Snow,0,2012-12-04 02:53:00
7:28 PM,28.4,28.4,100,30.02,0.2,Variable,3.5,-,0.01,Fog-Snow,Light Snow,0,2012-12-04 03:28:00
7:49 PM,28.4,28.4,100,30.02,0.2,Variable,4.6,-,0.01,Fog-Snow,Light Snow,0,2012-12-04 03:49:00
7:53 PM,28.9,28.0,96,30.11,0.2,Variable,4.6,-,0.01,Fog-Snow,Light Snow,0,2012-12-04 03:53:00
8:53 PM,30.0,28.0,92,30.11,0.5,Variable,4.6,-,0.00,Fog,Light Freezing Fog,0,2012-12-04 04:53:00
9:02 PM,30.2,28.4,93,30.02,0.2,Calm,Calm,-,0.00,Fog-Snow,Light Snow,0,2012-12-04 05:02:00
9:22 PM,30.2,26.6,86,30.02,0.5,Variable,4.6,-,0.00,Fog-Snow,Light Snow,0,2012-12-04 05:22:00
9:30 PM,30.2,28.4,93,30.02,0.2,Variable,3.5,-,0.00,Fog-Snow,Light Snow,0,2012-12-04 05:30:00
10:23 PM,28.4,26.6,93,29.99,0.5,Variable,3.5,-,0.00,Fog,Light Freezing Fog,0,2012-12-04 06:23:00
10:29 PM,28.4,26.6,93,29.99,1.8,Variable,5.8,-,0.00,,Overcast,0,2012-12-04 06:29:00
10:31 PM,28.4,26.6,93,29.99,4.0,Variable,5.8,-,0.00,,Overcast,0,2012-12-04 06:31:00
10:53 PM,28.9,26.1,89,30.07,4.0,Variable,5.8,-,0.00,,Overcast,0,2012-12-04 06:53:00
11:33 PM,28.4,24.8,86,29.96,10.0,Variable,4.6,-,N/A,,Mostly Cloudy,0,2012-12-04 07:33:00
11:53 PM,28.0,25.0,88,30.04,10.0,Variable,4.6,-,N/A,,Clear,0,2012-12-04 07:53:00